Temperature
23 23 22 23 22 22 22 23 23 23 23 23 23 23 22 21 20 20 20 19 19 19 19 19 18 18 18 18 17 17 17 17 16 16 16 16 16 15 15 15 15 14 14 14
22 22 22 22 22 22 22 22 22 22 23 24 23 22 22 21 21 20 20 19 19 19 19 19 18 18 18 18 18 18 17 17 17 16 16 16 16 15 15 15 15 14 14 14
22 22 22 22 22 22 22 22 22 22 23 23 23 22 22 21 21 20 20 19 19 19 19 19 19 18 18 18 18 17 17 17 17 16 16 16 16 15 15 15 15 14 14 14
22 22 21 23 23 23 22 22 23 23 23 23 22 22 21 21 20 20 20 19 19 19 19 19 19 18 18 18 18 17 17 17 17 16 16 16 16 15 15 15 15 14 14 14
22 21 22 22 22 22 22 22 23 23 23 22 21 21 21 20 20 20 20 19 19 19 19 19 19 18 18 18 18 18 17 17 17 17 16 16 16 15 15 15 14 14 14 14
21 21 21 23 23 22 22 22 23 22 22 22 21 23 23 20 19 19 19 19 19 19 19 19 18 18 18 18 18 18 17 17 17 17 16 16 16 15 15 15 14 14 14 13
21 21 22 22 21 21 22 23 22 22 21 21 22 22 21 20 19 19 19 19 19 19 19 19 18 18 18 18 18 17 17 17 17 17 16 16 15 15 15 14 14 13 13 13
21 21 21 21 21 22 23 22 21 21 20 20 20 19 19 19 19 18 19 19 19 19 18 18 18 18 18 18 17 17 17 17 17 16 16 15 15 15 14 14 14 13 13 13
22 21 21 20 20 20 20 21 20 20 19 19 19 19 18 18 18 18 18 18 18 18 18 18 18 18 17 17 17 17 17 17 16 16 15 15 15 15 14 14 13 13 13 13
20 20 19 18 18 18 18 19 19 19 19 19 18 18 18 18 18 18 18 18 18 17 17 17 17 17 17 17 17 17 16 16 16 15 15 15 15 14 14 14 13 13 13 12
20 20 19 18 18 18 18 18 18 18 18 18 18 18 18 18 18 18 18 17 17 17 17 17 17 17 17 17 16 16 16 15 15 15 15 14 14 14 14 14 13 13 13 13
20 19 20 19 18 17 17 17 17 17 18 17 18 18 17 17 17 17 17 17 17 17 16 16 16 17 16 16 16 16 15 15 15 14 14 14 14 14 14 14 13 13 13 12
18 17 17 17 17 17 17 17 17 17 17 17 17 17 17 17 17 17 17 17 17 17 16 16 16 16 16 16 15 15 15 15 15 14 14 14 13 13 13 13 13 13 13 12
15 16 16 16 16 16 16 16 16 17 17 17 17 17 17 17 16 16 16 16 16 16 16 16 16 16 15 15 15 15 14 14 14 14 14 14 13 13 13 13 13 12 12 12
14 15 15 15 15 15 15 16 16 16 16 16 16 16 16 16 16 16 16 16 16 16 16 15 15 15 15 15 15 14 14 14 14 14 13 13 13 13 13 12 12 12 12 12
14 14 14 14 15 15 15 15 15 15 15 15 15 15 15 15 15 15 15 15 15 15 15 15 15 15 15 15 14 14 14 14 14 13 13 13 13 12 12 12 12 12 11 11
14 14 14 14 14 14 14 14 15 15 15 15 15 15 15 15 15 15 15 14 14 14 14 14 14 14 14 14 14 14 13 13 13 13 12 12 12 12 12 12 11 11 11 11
13 13 14 14 14 13 14 14 14 14 15 15 14 14 14 14 14 14 14 14 14 14 13 14 14 14 14 13 13 13 13 13 12 12 12 12 12 12 12 11 11 11 11 11
12 12 13 13 13 13 13 13 14 14 14 14 14 14 14 14 14 14 14 13 13 13 13 13 13 13 13 13 13 13 12 12 12 12 12 12 11 11 11 11 11 10 10 10
11 12 12 12 12 12 13 13 13 13 13 13 13 13 13 13 13 13 13 13 13 13 13 13 13 12 12 12 12 12 12 12 11 11 11 11 11 11 10 10 10 10 10 10
11 11 11 12 12 12 12 12 12 13 13 13 12 12 12 12 12 12 12 12 12 12 12 12 12 12 12 12 12 11 11 11 11 11 11 10 10 10 10 10 10 9 9 9
10 11 11 11 11 11 11 12 12 12 12 12 12 12 12 12 12 12 12 12 12 12 12 12 11 11 11 11 11 11 11 11 10 10 10 10 10 9 9 9 9 9 9 8
10 10 10 10 10 10 11 11 11 11 11 11 11 11 11 11 11 11 11 11 11 11 11 11 11 11 11 10 10 10 10 10 10 9 9 9 9 9 9 9 8 8 8 8
9 9 10 10 10 10 10 10 10 10 10 10 11 11 11 11 11 11 11 11 11 11 10 10 10 10 10 10 9 9 9 9 9 9 9 8 8 8 8 8 8 8 7 7
9 9 9 9 9 9 9 9 9 9 9 9 10 10 10 10 10 10 10 10 10 10 10 10 9 9 9 9 9 9 9 8 8 8 8 8 7 7 7 7 7 7 7 7
8 8 8 8 8 8 8 8 9 9 9 9 9 9 9 9 9 9 9 9 9 9 9 9 9 8 8 8 8 8 8 8 8 7 7 7 7 6 6 6 6 6 6 6
7 7 7 7 7 8 8 8 8 8 8 8 8 8 8 8 8 8 8 8 8 8 8 8 8 8 7 7 7 7 7 7 7 7 6 6 6 6 6 5 5 5 5 5
Wind_Speed
6 3 5 8 9 11 12 11 8 7 8 7 5 4 3 3 5 6 9 11 12 12 12 12 13 13 13 12 12 12 11 11 10 9 8 7 6 6 5 5 4 4 4 3
7 6 7 8 8 10 12 11 11 10 9 6 5 3 4 4 5 7 9 11 12 13 13 13 13 13 13 13 13 12 12 11 9 9 8 8 7 7 6 5 5 4 4 4
7 6 6 9 10 10 9 9 9 10 7 5 4 4 4 5 6 7 8 10 11 12 13 13 14 14 14 14 13 12 12 11 10 10 9 9 8 7 7 6 5 5 4 4
6 7 9 5 3 8 10 10 10 8 7 5 5 4 4 4 5 7 8 9 10 11 11 12 12 13 13 13 13 12 12 11 10 10 10 9 8 8 7 6 6 5 4 4
7 9 8 5 5 7 9 9 9 9 7 5 4 4 4 3 5 6 7 8 9 10 10 11 12 13 13 13 13 13 12 12 11 11 10 10 9 9 8 7 6 5 5 4
8 9 8 4 3 5 7 8 6 8 7 5 4 5 3 1 2 4 4 5 6 8 9 10 11 12 13 13 14 13 13 12 11 11 11 10 10 9 7 6 6 5 5 5
11 10 7 2 4 6 8 3 3 5 5 5 5 3 1 0 1 2 3 4 5 7 9 10 11 12 13 13 13 12 12 11 11 11 11 10 9 8 7 6 6 6 5 5
10 10 8 4 7 7 3 1 3 4 3 4 3 2 1 0 0 2 3 4 6 7 8 8 10 11 12 11 11 10 11 11 11 11 9 9 9 8 7 7 7 6 5 5
7 5 0 4 4 2 2 2 2 3 3 3 2 2 1 1 1 2 3 4 6 7 8 8 9 10 11 10 10 10 11 11 11 11 10 9 9 9 8 7 6 5 5 5
6 5 3 3 3 2 2 3 2 2 2 3 3 2 1 1 2 2 3 4 5 7 7 7 8 8 8 8 10 11 11 10 10 10 10 10 8 8 7 7 6 6 5 5
7 5 3 4 3 3 2 2 2 1 2 2 2 2 2 2 2 2 3 4 5 6 6 7 7 7 7 8 10 10 10 10 10 9 9 9 8 6 7 7 6 6 6 5
7 5 5 4 2 2 2 2 2 1 1 1 2 2 2 2 2 2 3 4 4 5 6 6 7 7 7 8 9 10 9 9 8 8 8 7 7 6 2 3 4 5 4 5
4 2 3 2 2 2 2 2 1 2 2 2 2 2 3 3 3 3 3 4 4 5 5 6 6 7 7 7 8 9 9 8 7 7 8 7 7 7 6 4 4 5 5 5
3 2 3 3 2 2 2 1 1 1 1 2 2 2 3 3 3 3 3 3 4 5 5 6 6 6 6 7 8 8 8 7 7 7 7 7 8 7 7 7 6 5 6 7
5 5 4 2 2 2 1 1 1 1 1 1 2 3 3 3 3 2 2 3 4 5 5 5 6 5 6 7 8 8 7 6 6 6 7 7 7 7 7 7 6 5 4 5
5 4 4 4 3 3 3 3 2 2 1 1 2 2 3 3 2 2 2 3 4 4 5 5 5 5 6 6 6 6 6 6 6 6 6 6 7 7 7 7 7 6 6 5
6 6 5 5 4 4 4 4 4 3 2 2 2 2 3 3 3 2 2 3 3 3 4 4 4 4 5 6 6 5 5 6 7 6 6 6 6 7 7 7 7 6 6 6
7 6 6 5 5 5 4 4 3 3 3 2 2 3 3 3 3 3 3 3 3 3 2 3 3 4 5 5 5 4 5 5 6 6 6 6 6 6 6 7 7 7 5 5
5 5 4 4 3 3 3 3 2 2 2 2 3 4 4 3 3 2 2 3 3 3 3 2 3 4 4 5 4 4 5 5 6 6 6 6 6 6 6 6 6 6 6 5
4 4 3 3 2 2 2 2 2 2 2 2 3 4 4 3 3 3 3 3 3 2 2 2 4 4 4 4 4 4 5 5 5 5 5 6 6 6 6 6 6 6 6 6
5 4 3 3 2 2 2 2 2 2 2 2 3 3 3 3 3 3 3 3 2 1 2 3 3 3 3 3 4 4 4 4 5 5 5 5 5 5 6 6 6 6 5 5
4 4 4 3 3 2 2 2 2 2 2 2 2 2 2 2 3 3 3 3 2 1 2 2 3 2 3 4 4 3 4 4 4 4 5 5 5 5 5 5 5 5 5 5
4 4 4 4 4 3 2 2 2 3 3 3 3 3 3 2 2 3 3 2 2 2 2 2 2 3 4 4 3 3 4 4 4 4 4 4 4 4 4 4 4 4 4 4
3 4 4 3 3 3 3 3 2 2 2 2 2 3 3 2 2 2 2 2 2 2 2 2 4 4 4 3 3 3 3 3 3 3 3 3 2 2 3 3 3 3 4 4
3 3 3 3 3 3 3 3 2 2 2 1 2 2 2 2 2 2 1 2 2 2 2 3 4 4 4 3 3 3 3 3 3 3 3 2 2 2 2 2 2 2 2 3
3 2 3 3 3 2 2 2 2 2 2 2 1 1 1 1 2 2 1 2 2 2 2 2 3 3 3 3 3 3 3 3 3 3 3 2 2 2 2 1 1 1 2 2
2 2 2 2 2 2 3 3 3 3 3 3 2 2 2 2 2 2 2 2 2 2 2 2 2 3 3 3 3 3 2 2 2 2 2 2 2 1 1 1 1 1 1 1
Wind_Direction
242 240 218 221 215 209 221 235 247 255 264 280 288 273 246 213 196 191 191 191 191 192 192 191 192 191 190 187 184 182 183 187 188 184 180 179 176 176 175 175 179 173 169 165
224 222 223 232 229 221 225 235 243 256 266 282 284 260 237 214 203 202 200 197 198 197 196 194 193 191 187 187 185 184 186 189 183 180 176 178 180 179 174 176 184 182 184 180
225 210 222 237 229 222 217 223 232 241 254 269 268 254 243 230 214 213 211 204 202 202 201 198 195 189 186 186 182 185 185 181 178 180 177 178 178 177 177 182 185 190 192 187
227 211 234 236 198 216 223 230 232 243 254 256 254 265 260 244 229 225 219 210 206 207 202 198 192 187 185 181 180 184 184 180 179 180 178 176 177 178 183 185 183 192 193 192
229 233 240 229 209 203 216 234 230 232 240 247 252 246 244 243 241 236 220 211 207 205 199 193 190 186 182 181 181 185 186 184 181 180 178 177 179 182 184 185 184 190 188 188
225 235 241 224 184 200 216 237 221 218 221 224 222 239 244 228 234 233 218 206 201 196 191 188 187 182 182 184 185 189 188 187 181 180 180 180 180 181 181 183 186 189 188 195
228 236 244 212 155 172 211 233 171 195 207 214 224 259 315 310 239 221 204 193 184 182 182 183 179 178 185 187 190 189 184 180 177 179 182 181 176 177 178 180 185 194 193 199
221 233 235 155 168 199 245 108 169 195 208 213 233 268 284 260 201 182 175 174 172 171 173 175 175 179 185 188 188 182 176 175 176 178 176 175 172 174 179 180 187 195 200 202
220 229 160 170 196 246 301 241 208 214 213 210 213 222 219 196 160 157 163 166 168 167 166 167 175 183 184 183 178 174 173 175 176 175 175 175 174 174 178 185 196 203 207 213
224 228 228 216 234 263 273 270 269 244 226 212 209 204 183 164 142 138 146 155 164 167 167 169 174 181 184 175 171 172 174 176 176 176 177 177 179 182 185 191 200 205 211 218
228 227 221 219 242 264 276 280 280 256 222 212 203 185 171 159 144 135 141 152 162 171 172 170 170 174 175 172 171 174 176 178 179 180 179 180 183 189 196 198 203 207 211 215
229 214 224 229 238 254 260 266 255 230 220 207 191 176 166 156 150 149 150 154 162 170 173 171 169 170 171 172 176 177 178 179 179 178 179 181 183 187 192 216 184 203 221 231
251 240 246 252 245 253 267 290 277 229 212 208 192 173 165 154 154 160 163 165 169 171 173 171 172 176 174 175 181 184 183 179 179 182 181 183 187 194 197 198 196 203 206 219
227 217 219 218 236 280 282 280 259 203 196 198 182 170 159 150 149 161 176 178 175 173 173 172 174 180 179 178 182 187 185 180 181 185 188 190 195 201 203 203 205 213 207 205
222 236 235 237 244 261 256 223 195 184 157 165 167 168 167 165 166 173 173 168 171 174 176 172 173 176 174 178 183 186 184 183 186 190 192 195 198 202 207 211 215 215 213 201
226 225 216 222 235 244 235 218 212 216 208 192 185 181 176 170 164 160 158 162 171 178 179 176 176 176 176 178 181 186 189 178 183 189 193 195 199 203 208 212 215 218 220 216
206 210 215 224 234 240 238 233 225 222 225 227 219 201 178 163 157 156 160 169 173 176 179 180 177 176 180 181 183 188 190 184 183 194 201 202 202 206 209 212 217 223 226 213
216 217 217 221 231 239 240 236 230 229 232 232 213 197 187 185 186 184 177 166 163 167 177 188 179 178 182 185 189 193 195 195 197 201 202 205 208 211 213 216 219 224 230 215
206 207 212 221 230 233 234 231 227 229 224 207 198 200 201 205 202 192 179 171 176 190 203 195 179 184 183 185 188 197 201 201 203 204 205 200 208 214 216 219 222 224 224 221
206 207 209 212 216 220 229 230 214 205 211 206 203 200 203 205 198 190 182 189 205 212 204 194 189 189 187 182 185 197 201 206 206 206 207 210 214 217 219 222 226 228 227 225
201 202 198 198 206 219 228 222 210 208 211 204 198 199 203 204 197 193 192 209 226 219 208 188 194 192 188 179 186 195 199 205 208 211 211 213 216 219 222 223 224 226 229 232
198 202 207 210 212 224 229 226 221 217 213 214 212 205 199 199 199 202 207 217 217 179 188 197 204 186 176 173 187 193 197 204 211 214 216 217 218 220 223 223 225 229 233 234
208 210 213 216 218 222 225 228 224 220 219 218 213 210 212 215 211 210 227 233 210 190 199 202 182 158 167 180 189 195 197 204 211 216 218 221 222 222 222 225 229 231 233 235
217 217 217 218 214 211 219 231 233 228 223 223 219 212 207 204 219 229 237 216 204 201 209 181 159 164 182 189 191 196 200 203 207 215 218 218 218 222 221 220 223 229 234 240
226 220 213 208 210 217 222 218 215 211 206 207 207 202 205 205 211 222 223 208 194 202 208 182 173 179 190 197 193 194 196 194 197 204 209 208 209 217 222 221 224 233 242 249
232 228 225 225 228 223 218 213 212 205 197 198 205 200 192 187 185 192 199 197 192 198 202 193 188 189 197 197 194 194 191 184 188 196 201 199 199 203 214 219 231 253 262 272
235 231 222 220 218 215 214 213 214 210 206 202 202 199 188 180 178 178 183 189 194 198 192 187 189 191 190 187 185 187 185 180 177 181 187 190 193 197 198 200 221 260 290 300
Height
1513 1515 1516 1518 1520 1523 1523 1521 1523 1521 1520 1517 1517 1519 1520 1522 1524 1525 1528 1530 1533 1536 1539 1542 1545 1549 1552 1555 1558 1561 1564 1567 1569 1571 1573 1575 1576 1577 1578 1578 1579 1579 1579 1579
1515 1515 1516 1518 1517 1518 1520 1519 1519 1519 1518 1515 1516 1518 1519 1520 1521 1523 1525 1527 1530 1533 1535 1538 1541 1544 1548 1551 1555 1558 1561 1564 1567 1569 1570 1572 1574 1575 1576 1577 1577 1578 1578 1578
1515 1514 1517 1519 1513 1514 1516 1516 1516 1516 1514 1514 1515 1516 1517 1518 1519 1520 1522 1524 1527 1529 1532 1535 1538 1541 1544 1548 1551 1555 1558 1561 1563 1566 1568 1570 1571 1573 1574 1575 1575 1576 1576 1576
1512 1517 1526 1510 1505 1508 1511 1511 1511 1511 1511 1512 1514 1514 1515 1516 1517 1517 1519 1521 1523 1526 1528 1531 1535 1538 1541 1545 1548 1551 1554 1557 1560 1563 1565 1567 1569 1570 1572 1573 1573 1574 1574 1574
1511 1515 1511 1506 1505 1507 1509 1508 1507 1508 1509 1511 1512 1512 1512 1513 1514 1515 1516 1517 1519 1522 1525 1528 1531 1535 1538 1541 1544 1548 1551 1554 1557 1559 1562 1564 1566 1568 1569 1570 1571 1572 1572 1572
1510 1515 1515 1504 1501 1504 1507 1507 1503 1505 1507 1509 1510 1509 1509 1511 1511 1512 1513 1514 1516 1519 1522 1525 1528 1531 1534 1537 1541 1544 1547 1550 1553 1556 1558 1561 1563 1565 1566 1568 1569 1569 1570 1570
1507 1508 1501 1499 1502 1505 1510 1504 1502 1503 1506 1507 1507 1507 1509 1509 1509 1510 1510 1512 1513 1515 1518 1521 1524 1527 1530 1534 1537 1540 1544 1547 1550 1552 1555 1558 1560 1562 1563 1565 1566 1567 1567 1567
1503 1507 1504 1499 1501 1501 1500 1499 1501 1502 1504 1505 1506 1507 1507 1507 1507 1507 1508 1509 1510 1512 1515 1518 1521 1524 1527 1530 1533 1537 1540 1543 1546 1549 1552 1554 1556 1558 1560 1561 1563 1564 1564 1565
1495 1498 1497 1498 1499 1499 1500 1500 1501 1502 1503 1504 1504 1505 1505 1506 1506 1506 1507 1507 1509 1511 1513 1515 1518 1521 1524 1527 1530 1533 1536 1539 1542 1545 1548 1550 1552 1554 1556 1558 1559 1560 1561 1561
1493 1494 1496 1498 1498 1499 1499 1500 1500 1501 1501 1502 1503 1503 1504 1504 1505 1505 1505 1506 1507 1509 1511 1513 1515 1518 1521 1524 1527 1530 1533 1536 1539 1541 1544 1546 1548 1551 1552 1554 1555 1556 1557 1557
1491 1493 1495 1496 1497 1497 1498 1498 1499 1499 1500 1501 1501 1502 1502 1503 1503 1504 1504 1505 1506 1508 1509 1511 1513 1516 1519 1521 1524 1527 1530 1532 1535 1538 1540 1542 1544 1546 1548 1550 1551 1552 1553 1554
1488 1491 1492 1494 1495 1495 1496 1496 1497 1498 1498 1499 1500 1500 1501 1501 1502 1502 1503 1504 1505 1506 1508 1510 1512 1514 1516 1519 1521 1524 1527 1529 1531 1534 1536 1538 1540 1543 1544 1546 1547 1548 1549 1550
1488 1490 1491 1492 1493 1494 1494 1495 1495 1496 1497 1497 1498 1499 1499 1499 1500 1501 1502 1503 1504 1505 1506 1508 1510 1512 1514 1516 1519 1521 1524 1526 1528 1530 1532 1534 1536 1538 1540 1542 1543 1543 1544 1545
1487 1488 1489 1490 1491 1492 1493 1493 1494 1494 1495 1495 1496 1497 1497 1498 1499 1499 1500 1501 1502 1503 1504 1506 1507 1509 1511 1513 1516 1518 1521 1522 1524 1526 1528 1530 1532 1534 1536 1537 1538 1538 1539 1540
1484 1486 1487 1488 1489 1490 1490 1491 1492 1492 1493 1493 1494 1494 1495 1496 1497 1497 1498 1499 1500 1501 1503 1504 1505 1507 1509 1510 1513 1515 1517 1519 1520 1522 1524 1526 1528 1530 1531 1532 1533 1533 1534 1535
1482 1483 1484 1485 1486 1487 1488 1489 1489 1490 1491 1491 1492 1492 1493 1494 1495 1495 1496 1497 1498 1499 1500 1501 1503 1504 1506 1508 1509 1511 1513 1515 1517 1518 1520 1522 1523 1525 1526 1527 1528 1528 1529 1529
1479 1480 1481 1482 1483 1484 1485 1486 1487 1488 1488 1489 1490 1490 1491 1492 1493 1493 1494 1495 1496 1497 1498 1499 1500 1502 1503 1505 1506 1508 1509 1511 1513 1514 1516 1517 1518 1520 1521 1522 1522 1523 1523 1524
1476 1477 1478 1479 1480 1481 1482 1483 1484 1485 1485 1486 1487 1488 1489 1490 1490 1491 1491 1492 1493 1494 1495 1496 1498 1499 1501 1502 1503 1504 1506 1507 1509 1510 1511 1512 1513 1515 1516 1516 1517 1518 1518 1519
1472 1474 1476 1477 1478 1478 1479 1480 1480 1481 1482 1483 1484 1485 1486 1487 1488 1488 1489 1490 1490 1491 1492 1494 1495 1496 1497 1499 1500 1501 1502 1503 1504 1506 1507 1508 1509 1510 1510 1511 1512 1512 1513 1513
1470 1471 1473 1474 1475 1476 1477 1477 1477 1478 1479 1480 1481 1482 1483 1484 1485 1486 1487 1487 1488 1488 1490 1491 1492 1493 1494 1495 1496 1497 1498 1499 1500 1501 1502 1503 1504 1505 1505 1506 1507 1507 1508 1508
1467 1468 1470 1471 1472 1473 1474 1474 1474 1475 1476 1477 1478 1478 1479 1480 1481 1483 1483 1484 1485 1486 1487 1488 1489 1490 1491 1491 1493 1493 1494 1495 1496 1497 1498 1499 1499 1500 1500 1501 1501 1502 1502 1502
1464 1465 1466 1468 1469 1469 1470 1471 1472 1472 1473 1474 1475 1476 1476 1477 1478 1479 1480 1481 1482 1483 1483 1484 1485 1486 1487 1488 1489 1489 1490 1491 1491 1492 1493 1494 1494 1495 1495 1496 1496 1497 1497 1497
1461 1462 1463 1464 1465 1466 1467 1467 1468 1469 1470 1471 1472 1472 1473 1474 1474 1475 1476 1478 1478 1479 1480 1480 1481 1482 1483 1484 1485 1486 1486 1486 1487 1488 1488 1489 1489 1490 1490 1490 1491 1491 1492 1492
1459 1459 1460 1461 1462 1463 1463 1464 1465 1466 1467 1467 1468 1469 1470 1471 1471 1472 1473 1473 1474 1475 1476 1476 1477 1478 1479 1480 1481 1481 1482 1482 1483 1483 1484 1484 1484 1485 1485 1486 1486 1486 1486 1486
1456 1456 1457 1458 1458 1459 1460 1461 1461 1462 1463 1464 1465 1466 1467 1468 1468 1468 1469 1470 1470 1471 1472 1472 1473 1474 1475 1475 1476 1477 1477 1478 1478 1479 1480 1480 1480 1480 1480 1481 1481 1481 1481 1481
1453 1453 1454 1455 1455 1456 1456 1457 1458 1459 1459 1460 1461 1462 1463 1464 1465 1465 1466 1466 1466 1467 1467 1468 1469 1470 1471 1472 1472 1473 1473 1474 1475 1475 1476 1476 1476 1476 1476 1476 1476 1476 1477 1477
1450 1451 1451 1452 1452 1453 1453 1454 1455 1455 1456 1457 1458 1459 1459 1460 1461 1461 1462 1462 1463 1463 1464 1465 1465 1466 1467 1468 1468 1469 1470 1470 1471 1471 1472 1472 1472 1472 1472 1472 1472 1472 1472 1472